User: anonymous   Login
Location: Unspecified
(0.0000°N, 0.0000°E)
Time: 06:52:35
(UTC+00:00)
Language:

TBA - TO BE ASSIGNED - Orbit

View from above orbital plane
View from above orbital plane
View from above satellite
View from above satellite

Ground track
Ground track

The orbit is defined by the following mean orbital elements,

1 68689U          26145.42220529 +.00000000 +00000-0 +18076-3 0 00009
2 68689  51.6330  52.7989 0007470  96.3597 263.8242 15.49365963    02
Epoch (UTC): 25 May 2026 10:07:58
Eccentricity: 0.0007470
inclination: 51.6330°
perigee height: 414 km
apogee height: 424 km
right ascension of ascending node: 52.7989°
argument of perigee: 96.3597°
revolutions per day: 15.49365963
mean anomaly at epoch: 263.8242°

The dashed part of the orbit path shows where the satellite is in the earth's shadow,  

DLR